Regional Weather Roundup
Issued by NWS

Home | Current Version | Previous Version | Text Only | Print | Product List | Glossary On
Versions: 1 2 3 4 5 6 7 8 9 10 11 12 13 14 15 16 17 18 19 20 21 22 23 24 25 26 27 28 29 30 31 32 33 34 35 36 37 38 39 40 41 42 43 44 45 46 47 48 49 50
000
ASUS43 KLSX 281210
RWRMO

WEATHER SUMMARY FOR MISSOURI
NATIONAL WEATHER SERVICE SPRINGFIELD MO
700 AM CDT SAT MAY 28 2016

NOTE: "FAIR" INDICATES FEW OR NO CLOUDS BELOW 12,000 FEET WITH NO
       SIGNIFICANT WEATHER AND/OR OBSTRUCTIONS TO VISIBILITY.
       CURRENT SKY AND/OR WEATHER CONDITIONS ARE NOT AVAILABLE FOR
       CHILLICOTHE AND FARMINGTON.

MOZ001>031-035>038-043-044-053-054-281300-
...NORTHERN AND WESTERN MISSOURI...

CITY           SKY/WX    TMP DP  RH WIND       PRES   REMARKS
KANSAS CTY INT CLOUDY    61  58  90 SE7       29.78R
6HR MIN TEMP:  56; 6HR MAX TEMP:  61; 6HR PCP:  0.01;

KANSAS C DTWN  CLOUDY    62  59  90 E5        29.78S
6HR MIN TEMP:  59; 6HR MAX TEMP:  62;

LEE`S SUMMIT   PTSUNNY   60  58  92 SE7       29.79S
6HR MIN TEMP:  58; 6HR MAX TEMP:  60;

ST JOSEPH      PTSUNNY   60  58  92 SE8       29.76F
6HR MIN TEMP:  59; 6HR MAX TEMP:  61; 6HR PCP: TRACE;

CHILLICOTHE      N/A     60  60 100 CALM      29.80F
6HR MIN TEMP:  60; 6HR MAX TEMP:  67; 6HR PCP:  0.13;

KIRKSVILLE     MOSUNNY   64  62  93 SW8       29.81R
6HR MIN TEMP:  63; 6HR MAX TEMP:  65; 6HR PCP:  0.03;


$$
MOZ066>068-077>081-088>096-101>105-281300-
...SOUTHWEST MISSOURI...

CITY           SKY/WX    TMP DP  RH WIND       PRES   REMARKS
SPRINGFIELD    MOSUNNY   63  60  90 S9        29.86R
6HR MIN TEMP:  62; 6HR MAX TEMP:  66;

JOPLIN         MOCLDY    64  61  90 S17       29.85R
6HR MIN TEMP:  62; 6HR MAX TEMP:  66;

BRANSON        PTSUNNY   61  61 100 SE6       29.90R

$$
MOZ032>034-039>042-045>050-055>058-069>072-281300-
...CENTRAL MISSOURI...

CITY           SKY/WX    TMP DP  RH WIND       PRES   REMARKS
COLUMBIA       CLOUDY    66  64  93 S9        29.85R
6HR MIN TEMP:  65; 6HR MAX TEMP:  68;

JEFFERSON CITY CLOUDY    66  63  90 SE7       29.85R
6HR MIN TEMP:  66; 6HR MAX TEMP:  69;

ROLLA          CLOUDY    64  62  93 S8        29.87R
6HR MIN TEMP:  64; 6HR MAX TEMP:  67;

SEDALIA        MOSUNNY   65  62  90 S10       29.83R
6HR MIN TEMP:  61; 6HR MAX TEMP:  69; 6HR PCP: TRACE;

WHITEMAN AFB   SUNNY     64  64 100 S9        29.80S

$$
MOZ051-052-059>065-281300-
...EAST CENTRAL MISSOURI...

CITY           SKY/WX    TMP DP  RH WIND       PRES   REMARKS
ST LOUIS INTL  CLOUDY    69  64  84 S10       29.90R
6HR MIN TEMP:  68; 6HR MAX TEMP:  71;

SPIRIT OF STL  PTSUNNY   68  65  90 S7        29.88R
6HR MIN TEMP:  67; 6HR MAX TEMP:  70;

ST CHARLES     CLOUDY    68  66  93 S12       29.88R
6HR MIN TEMP:  67; 6HR MAX TEMP:  70;


$$
MOZ072>076-082>087-097>100-106>115-281300-
...SOUTH CENTRAL AND SOUTHEAST MISSOURI...

CITY           SKY/WX    TMP DP  RH WIND       PRES   REMARKS
CAPE GIRARDEAU CLOUDY    69  66  90 S9        29.95R
6HR MIN TEMP:  67; 6HR MAX TEMP:  70; 6HR PCP:  0.02;

FARMINGTON     CLOUDY    66  64  93 S10       29.94R
6HR MIN TEMP:  65; 6HR MAX TEMP:  68;

POPLAR BLUFF   CLOUDY    68  65  90 S7        29.94R
6HR MIN TEMP:  67; 6HR MAX TEMP:  69; 6HR PCP:  0.02;

WEST PLAINS    CLOUDY    66  62  87 S6        29.93R
6HR MIN TEMP:  66; 6HR MAX TEMP:  70;


$$



USA.gov is the U.S. government's official web portal to all federal, state and local government web resources and services.